^^
Station Historical Data
 
Daily Summary for May 24, 2017 Units:  Metric    English   Both
« Previous Day
Next Day »
Daily Weekly Monthly Yearly Custom
  Current: High: Low: Average:
Temperature: 23.6 °C 23.6 °C 12.3 °C 14.6 °C
Dew Point: 0 °C 0.7 °C -2.6 °C -1.7 °C
Humidity: 21% 38% 21% 33%
Wind Speed: 9.7km/h 9.7km/h 0km/h 0.5km/h
Wind Gust: 14.5km/h 14.5km/h - -
WindNorth - - North
Pressure: 1015.1 hPa 1015.8 hPa 1013.8 hPa -
Precipitation: 0 mm      
Historical Graphs
 
 
Tabular Data for May 24, 2017
Time Temperature Dew Point Pressure Wind Wind Speed Wind Gust Humidity Rainfall Rate (Hourly) solar Conditions
00:07 15.8 °C -2.2 °C 1014.4 hPa Calm     29% 0 mm 0.0 W/m2
00:13 15.4 °C -2.1 °C 1014.4 hPa Calm     30% 0 mm 0.0 W/m2
00:23 15.2 °C -1.8 °C 1014.4 hPa Calm     31% 0 mm 0.0 W/m2
00:28 14.8 °C -1.7 °C 1014.4 hPa Calm     32% 0 mm 0.0 W/m2
00:34 15.2 °C -1.8 °C 1014.4 hPa Calm     31% 0 mm 0.0 W/m2
00:55 14.7 °C -2.3 °C 1014.4 hPa Calm     31% 0 mm 0.0 W/m2
01:00 14.7 °C -1.8 °C 1014.4 hPa Calm     32% 0 mm 0.0 W/m2
01:05 14.7 °C -1.8 °C 1014.4 hPa Calm     32% 0 mm 0.0 W/m2
01:10 14.6 °C -1.9 °C 1014.1 hPa Calm     32% 0 mm 0.0 W/m2
01:15 14.6 °C -1.9 °C 1014.4 hPa Calm     32% 0 mm 0.0 W/m2
01:20 14.7 °C -1.8 °C 1014.4 hPa Calm     32% 0 mm 0.0 W/m2
01:30 14.8 °C -1.7 °C 1014.4 hPa Calm     32% 0 mm 0.0 W/m2
01:36 14.7 °C -1.8 °C 1014.4 hPa Calm     32% 0 mm 0.0 W/m2
01:41 14.6 °C -1.9 °C 1014.4 hPa Calm     32% 0 mm 0.0 W/m2
01:46 14.4 °C -2.1 °C 1014.4 hPa Calm     32% 0 mm 0.0 W/m2
01:51 14.2 °C -1.9 °C 1014.1 hPa Calm     33% 0 mm 0.0 W/m2
01:56 14.1 °C -1.9 °C 1014.1 hPa Calm     33% 0 mm 0.0 W/m2
02:01 14.1 °C -1.9 °C 1014.1 hPa Calm     33% 0 mm 0.0 W/m2
02:06 14.1 °C -1.9 °C 1014.1 hPa Calm     33% 0 mm 0.0 W/m2
02:12 14.1 °C -1.9 °C 1014.1 hPa Calm     33% 0 mm 0.0 W/m2
02:18 14 °C -2 °C 1014.1 hPa Calm     33% 0 mm 0.0 W/m2
02:23 13.7 °C -2.3 °C 1013.8 hPa Calm     33% 0 mm 0.0 W/m2
02:28 13.5 °C -2.1 °C 1014.1 hPa Calm     34% 0 mm 0.0 W/m2
02:33 13.4 °C -2.2 °C 1014.1 hPa Calm     34% 0 mm 0.0 W/m2
02:38 13.4 °C -1.8 °C 1014.1 hPa Calm     35% 0 mm 0.0 W/m2
02:43 13.6 °C -1.6 °C 1014.1 hPa Calm     35% 0 mm 0.0 W/m2
02:49 14.1 °C -1.5 °C 1014.1 hPa Calm     34% 0 mm 0.0 W/m2
02:54 14.3 °C -1.8 °C 1014.1 hPa Calm     33% 0 mm 0.0 W/m2
02:59 14.1 °C -1.9 °C 1014.1 hPa Calm     33% 0 mm 0.0 W/m2
03:04 13.7 °C -1.9 °C 1014.1 hPa Calm     34% 0 mm 0.0 W/m2
03:09 13.3 °C -2.2 °C 1014.1 hPa Calm     34% 0 mm 0.0 W/m2
03:14 13.3 °C -1.8 °C 1014.1 hPa Calm     35% 0 mm 0.0 W/m2
03:20 13.2 °C -1.9 °C 1014.1 hPa Calm     35% 0 mm 0.0 W/m2
03:25 13 °C -2.1 °C 1014.1 hPa Calm     35% 0 mm 0.0 W/m2
03:35 12.8 °C -2.3 °C 1014.1 hPa Calm     35% 0 mm 0.0 W/m2
03:40 12.5 °C -2.6 °C 1014.1 hPa Calm     35% 0 mm 0.0 W/m2
03:45 12.3 °C -2.4 °C 1014.1 hPa Calm     36% 0 mm 0.0 W/m2
03:51 12.3 °C -2.4 °C 1014.1 hPa Calm     36% 0 mm 0.0 W/m2
03:56 12.5 °C -2.2 °C 1014.1 hPa Calm     36% 0 mm 0.0 W/m2
04:01 12.6 °C -2.5 °C 1013.8 hPa Calm     35% 0 mm 0.0 W/m2
04:06 12.5 °C -2.2 °C 1013.8 hPa Calm     36% 0 mm 0.0 W/m2
04:12 12.7 °C -2 °C 1013.8 hPa Calm     36% 0 mm 0.0 W/m2
04:17 12.7 °C -2 °C 1013.8 hPa Calm     36% 0 mm 0.0 W/m2
04:22 12.7 °C -2.4 °C 1014.1 hPa Calm     35% 0 mm 0.0 W/m2
04:27 12.7 °C -2 °C 1014.1 hPa Calm     36% 0 mm 0.0 W/m2
04:32 12.7 °C -2 °C 1014.1 hPa Calm     36% 0 mm 0.0 W/m2
04:37 12.8 °C -1.9 °C 1014.1 hPa Calm     36% 0 mm 0.0 W/m2
04:43 12.7 °C -2 °C 1014.1 hPa Calm     36% 0 mm 0.0 W/m2
04:48 12.8 °C -1.9 °C 1014.1 hPa Calm     36% 0 mm 0.0 W/m2
04:53 12.8 °C -1.9 °C 1014.1 hPa Calm     36% 0 mm 0.0 W/m2
04:58 12.8 °C -1.9 °C 1014.1 hPa Calm     36% 0 mm 0.0 W/m2
05:04 12.9 °C -1.8 °C 1014.1 hPa Calm     36% 0 mm 0.0 W/m2
05:09 13 °C -1.7 °C 1014.1 hPa Calm     36% 0 mm 0.0 W/m2
05:14 13.1 °C -1.6 °C 1014.1 hPa Calm     36% 0 mm 0.0 W/m2
05:19 13.1 °C -1.6 °C 1014.1 hPa Calm     36% 0 mm 0.0 W/m2
05:24 12.9 °C -2.2 °C 1014.1 hPa Calm     35% 0 mm 0.0 W/m2
05:30 12.6 °C -2.1 °C 1014.4 hPa Calm     36% 0 mm 0.0 W/m2
05:35 12.4 °C -1.9 °C 1014.4 hPa Calm     37% 0 mm 0.0 W/m2
05:40 12.4 °C -1.9 °C 1014.4 hPa Calm     37% 0 mm 0.0 W/m2
05:45 12.4 °C -1.9 °C 1014.4 hPa Calm     37% 0 mm 0.0 W/m2
05:51 12.3 °C -2 °C 1014.4 hPa Calm     37% 0 mm 0.0 W/m2
06:01 12.4 °C -1.5 °C 1014.4 hPa Calm     38% 0 mm 0.0 W/m2
06:11 12.5 °C -1.4 °C 1014.4 hPa Calm     38% 0 mm 0.0 W/m2
06:17 13.2 °C -1.2 °C 1014.8 hPa Calm     37% 0 mm 0.0 W/m2
06:22 13.3 °C -1.5 °C 1014.8 hPa Calm     36% 0 mm 0.0 W/m2
06:32 13.4 °C -1.4 °C 1014.8 hPa Calm     36% 0 mm 0.0 W/m2
06:38 13.3 °C -1.5 °C 1014.8 hPa Calm     36% 0 mm 11.0 W/m2
06:48 12.9 °C -1.8 °C 1014.8 hPa Calm     36% 0 mm 14.0 W/m2
07:03 13.4 °C -1.4 °C 1014.8 hPa Calm     36% 0 mm 21.0 W/m2
07:08 13.4 °C -1.4 °C 1015.1 hPa Calm     36% 0 mm 25.0 W/m2
07:13 13.3 °C -1.5 °C 1015.1 hPa Calm     36% 0 mm 28.0 W/m2
07:19 13.2 °C -1.6 °C 1015.1 hPa Calm     36% 0 mm 44.0 W/m2
07:23 13.4 °C -1 °C 1015.1 hPa Calm     37% 0 mm 109.0 W/m2
07:29 14.2 °C -0.7 °C 1015.1 hPa Calm     36% 0 mm 125.0 W/m2
07:44 16.1 °C -0.6 °C 1015.1 hPa Calm     32% 0 mm 183.0 W/m2
09:16 22.2 °C 0.7 °C 1015.8 hPa Calm     24% 0 mm 446.0 W/m2
09:26 22.6 °C 0.4 °C 1015.5 hPa North 3.2 km/h 9.7 km/h 23% 0 mm 473.0 W/m2
09:36 22.8 °C 0 °C 1015.8 hPa North 7.9 km/h 11.3 km/h 22% 0 mm 494.0 W/m2
09:46 22.9 °C 0.1 °C 1015.8 hPa Calm   14.5 km/h 22% 0 mm 508.0 W/m2
09:57 23 °C 0.1 °C 1015.8 hPa North 7.9 km/h 9.7 km/h 22% 0 mm 531.0 W/m2
10:06 22.7 °C -0.1 °C 1015.8 hPa Calm   12.9 km/h 22% 0 mm 547.0 W/m2
10:31 23.2 °C -0.3 °C 1015.5 hPa North 7.9 km/h 12.9 km/h 21% 0 mm 578.0 W/m2
10:40 23.4 °C -0.2 °C 1015.1 hPa Calm   9.7 km/h 21% 0 mm 575.0 W/m2
10:50 23.6 °C 0 °C 1015.1 hPa North 9.7 km/h 14.5 km/h 21% 0 mm 598.0 W/m2
Canyon Roadhouse, Fishriver Canyon, Namibia
Compliments of Weather Underground - 3 mb